Flag for China Weather past 2 weeks in Tianjin, Tianjin Municipality, China

Now
28 °F

Clear.


Feels Like: 17 °F
Forecast: 21 / 34 °F
Wind: 15 mph from Northwest

Location: Tianjin / Zhangguizhu

Current Time: Dec 20, 2014 at 12:54:40 AM

Latest Report: Dec 20, 2014 at 12:30 AM


Visibility: 10 mi

Pressure: 30.42 "Hg

Humidity: 31%

Dew point: 1 °F

Location of TianjinLocation

Historic Weather in Tianjin — Graph

°F

Tianjin temperature yesterday

Maximum temperature yesterday: 43 °F (at 12:30 PM)
Minimum temperature yesterday: 21 °F (at 5:30 AM)
Average temperature yesterday: 32 °F

Past Weeks' High & Low Weather Summary

 TemperatureHumidityPressure
High45 °F (Dec 14, 2:00 PM)100% (Dec 10, 12:30 AM)30.63 "Hg (Dec 10, 12:30 AM)
Low18 °F (Dec 6, 6:00 AM)13% (Dec 5, 1:00 PM)30.15 "Hg (Dec 19, 4:00 AM)
Average31 °F46%30.38 "Hg
* Reported Dec 4 11:00 PM — Dec 19 11:30 PM, Tianjin, Weather by CustomWeather, © 2014

Note: Actual official high and low records may vary slightly from our data, if they occured in-between our weather recording intervals... More about our weather records

Advertising

Tianjin weather history for previous 24 hours

 ConditionsComfort  
Time TempWeatherWind HumidityBarometerVisibility
11:30 PM
Dec 19
28 °FClear.15 mph29%30.42 "Hg10 mi
11:00 PM28 °FClear.15 mph29%30.42 "Hg10 mi
10:30 PM30 °FClear.17 mph26%30.39 "Hg10 mi
10:00 PM30 °FClear.20 mph29%30.39 "Hg10 mi
9:30 PM32 °FClear.20 mph27%30.39 "Hg10 mi
9:00 PM32 °FClear.22 mph23%30.36 "Hg10 mi
8:30 PM32 °FClear.15 mph27%30.36 "Hg10 mi
8:00 PM34 °FClear.20 mph19%30.33 "Hg10 mi
7:30 PM34 °FClear.20 mph19%30.33 "Hg10 mi
7:00 PM36 °FClear.20 mph20%30.33 "Hg10 mi
6:30 PM36 °FClear.22 mph20%30.30 "Hg10 mi
6:00 PM37 °FClear.22 mph20%30.27 "Hg10 mi
5:30 PM37 °FClear.17 mph20%30.27 "Hg10 mi
5:00 PM39 °FClear.20 mph20%30.24 "Hg10 mi
4:30 PM39 °FSunny.17 mph20%30.24 "Hg10 mi
4:00 PM41 °FSunny.17 mph20%30.21 "Hg10 mi
3:30 PM41 °FSunny.20 mph20%30.21 "Hg10 mi
3:00 PM43 °FSunny.20 mph19%30.18 "Hg10 mi
2:30 PM43 °FSunny.22 mph19%30.18 "Hg10 mi
2:00 PM43 °FSunny.20 mph21%30.18 "Hg10 mi
1:30 PM43 °FSunny.20 mph21%30.18 "Hg10 mi
1:00 PM43 °FSunny.24 mph21%30.18 "Hg10 mi
12:30 PM43 °FSunny.22 mph21%30.18 "Hg10 mi
11:30 AM41 °FClear.20 mph26%30.21 "Hg5 mi
11:00 AM37 °FClear.22 mph30%30.21 "Hg4 mi
10:30 AM37 °FHaze.17 mph30%30.21 "Hg3 mi
10:00 AM37 °FHaze.17 mph35%30.21 "Hg3 mi
9:30 AM34 °FHaze.15 mph48%30.21 "Hg2 mi
9:00 AM30 °FIce fog.6 mph80%30.21 "Hg1 mi
8:30 AM27 °FIce fog.3 mph86%30.21 "Hg1 mi
8:00 AM25 °FIce fog.3 mph93%30.21 "Hg1 mi
7:30 AM21 °FIce fog.1 mph93%30.21 "Hg1 mi
7:00 AM23 °FIce fog.3 mph93%30.18 "Hg1 mi
6:30 AM23 °FIce fog.3 mph86%30.18 "Hg1 mi
6:00 AM27 °FIce fog.6 mph86%30.18 "Hg1 mi
5:30 AM21 °FIce fog.6 mph93%30.18 "Hg1 mi
5:00 AM23 °FIce fog.8 mph86%30.18 "Hg1 mi
4:30 AM25 °FIce fog.13 mph80%30.18 "Hg1 mi
4:00 AM30 °FIce fog.6 mph69%30.15 "Hg1 mi
3:30 AM25 °FIce fog.3 mph80%30.18 "Hg1 mi
3:00 AM25 °FIce fog.1 mph86%30.18 "Hg1 mi
2:30 AM27 °FIce fog.No wind80%30.18 "Hg1 mi
2:00 AM25 °FIce fog.1 mph86%30.18 "Hg1 mi
1:30 AM27 °FIce fog.1 mph80%30.18 "Hg1 mi
1:00 AM27 °FHaze.1 mph80%30.21 "Hg1 mi
12:30 AM27 °FHaze.3 mph80%30.21 "Hg1 mi
12:00 AM28 °FHaze.1 mph74%30.21 "Hg1 mi
Weather by CustomWeather, © 2014

See weather overviewHow to use our weather pages